Preview of NWS' New Version of Forecast
This preview is not operational and should not be used for support decisions.

Regional Weather Roundup (RWR)

Issued by National Weather Service (NWS)

                            
000
ASCA42 TJSJ 191910
RWRPR 
PUERTO RICO/U.S. VIRGIN ISLANDS HOURLY WEATHER ROUNDUP
NATIONAL WEATHER SERVICE SAN JUAN PR
300 PM AST WED JUN 19 2019

PRZ001>002-007>008-010-192000-
PUERTO RICO
  
CITY           SKY/WX    TMP DP  RH WIND       PRES   REMARKS
SAN JUAN LMM   MOSUNNY   88  77  70 NE21G31   30.05S HX 100           
AGUADILLA      MOSUNNY   86  77  74 E17G24    30.05F HX  97           
CEIBA          CLOUDY    90  75  62 E13       30.07S HX 100           
$$

VIZ001>002-192000-
U.S. VIRGIN ISLANDS
  
CITY           SKY/WX    TMP DP  RH WIND       PRES   REMARKS
CHARLOTTE AMA  MOSUNNY   88  72  58 SE14G20   30.05F HX  94           
CHRISTIANSTED  MOSUNNY   90  73  58 E18G26    30.05F HX  98           
$$

HOURLY WEATHER ROUNDUP FOR THE NEWS MEDIA
  
CITY           SKY/WX    TMP DP  RH WIND       PRES   REMARKS
ORLANDO        LGT RAIN  81  74  79 NW8       29.97S                  
NEW YORK       CLOUDY    69  67  93 E9        29.84F                  
NEWARK         CLOUDY    71  66  84 SE6       29.82F                  
CHICAGO        CLOUDY    65  59  81 NE9       29.76F                  
HARTFORD       CLOUDY    70  63  78 SE8       29.86F                  
BOSTON         PTSUNNY   68  60  75 E14       29.86S                  
DALLAS         PTSUNNY   91  75  59 S9        29.75F HX 101           
PHILADELPHIA   PTSUNNY   79  72  79 NE5       29.76F                  
LOS ANGELES    MOSUNNY   70  58  65 SW6       29.99F                  
WASHINGTON DC  PTSUNNY   84  68  58 S7        29.76F